Location: Arroyo de Fuente Vieja
(40.4902°N, 4.1175°W)
Time: 11:53:08
(UTC+00:00)

Resurs 01 Rocket - Pass Details

Date: 18 April 2024
Orbit: 630 x 640 km, 97.8° (Epoch: 28 May)

Event Time Altitude Azimuth Distance (km) Brightness Sun altitude
Exits shadow 19:39:51 - 141° (SE) 2,291 3.9 -8.1°
Reaches altitude 10° 19:40:34 10° 138° (SE) 2,017 3.6 -8.3°
Maximum altitude 19:44:37 37° 71° (ENE) 987 2.2 -9.0°
Drops below altitude 10° 19:48:43 10° 4° (N) 2,037 4.5 -9.7°
Sets 19:51:02 0° 357° (N) 2,952 5.4 -10.1°
